This is the latest recevied weather packets stored in our database for station/object LZ1HCO-25. If no packets are shown the sender has not sent any weather packets the latest 10 day(s).
| Time | Temp. | Humidity | Pressure | Rain* | Wind** | Luminosity | Snow |
|---|---|---|---|---|---|---|---|
| 1778148702 | 20.56° C | 57% | 969 hPa | - | - | 0 W/m² | - |
| 1778148391 | 21.11° C | 58% | 969 hPa | - | - | 0 W/m² | - |
| 1778148080 | 21.11° C | 57% | 969 hPa | - | - | 0 W/m² | - |
| 1778147769 | 21.11° C | 57% | 969 hPa | - | - | 0 W/m² | - |
| 1778147457 | 21.11° C | 56% | 969 hPa | - | - | 0 W/m² | - |
| 1778147146 | 20.56° C | 57% | 969 hPa | - | - | 0 W/m² | - |
| 1778146834 | 20.56° C | 57% | 969 hPa | - | - | 0 W/m² | - |
| 1778146523 | 21.11° C | 58% | 969 hPa | - | - | 0 W/m² | - |
| 1778146212 | 21.11° C | 59% | 969 hPa | - | - | 0 W/m² | - |
| 1778145900 | 21.11° C | 61% | 969 hPa | - | - | 0 W/m² | - |
| 1778145589 | 21.11° C | 59% | 969 hPa | - | - | 0 W/m² | - |
| 1778145277 | 21.67° C | 58% | 969 hPa | - | - | 0 W/m² | - |
| 1778144692 | 21.67° C | 55% | 969 hPa | - | - | 0 W/m² | - |
| 1778144692 | 21.67° C | 53% | 969 hPa | - | - | 0 W/m² | - |
| 1778143992 | 21.67° C | 54% | 969 hPa | - | - | 0 W/m² | - |
| 1778143680 | 21.67° C | 52% | 969 hPa | - | - | 0 W/m² | - |
| 1778143369 | 22.22° C | 54% | 969 hPa | - | - | 0 W/m² | - |
| 1778143058 | 22.22° C | 52% | 969 hPa | - | - | 0 W/m² | - |
| 1778142746 | 22.78° C | 52% | 969 hPa | - | - | 0 W/m² | - |
| 1778142435 | 21.67° C | 52% | 969 hPa | - | - | 0 W/m² | - |
| 1778142124 | 21.67° C | 54% | 969 hPa | - | - | 0 W/m² | - |
| 1778141812 | 21.67° C | 52% | 969 hPa | - | - | 0 W/m² | - |
| 1778141501 | 21.67° C | 53% | 969 hPa | - | - | 0 W/m² | - |
| 1778141189 | 21.67° C | 52% | 969 hPa | - | - | 0 W/m² | - |
| 1778140878 | 21.67° C | 55% | 969 hPa | - | - | 0 W/m² | - |
* Rain since midnight (hover to see other rain measurements)
** Current wind speed in m/s (hover to see current wind gust speed)